FW4118 Weather Reports


Display with metric or nautical units.
time (UTC)temp
F
wind
direction
speed
MPH
gust
MPH
rain 1hr
in
rain 24hr
in
rain mn
in
humidity
%
barometer
mb
20260509064308 48 215 0.0 0.0 0.00 0.03 0.02
20260509063809 48 215 0.0 0.0 0.00 0.03 0.02
20260509063309 48 215 0.0 0.0 0.00 0.03 0.02
20260509062809 48 215 0.0 0.0 0.00 0.03 0.02
20260509061809 49 215 0.0 0.0 0.00 0.03 0.02
20260509060809 49 215 0.0 0.0 0.00 0.03 0.02
20260509060309 49 215 0.0 0.0 0.00 0.03 0.02
20260509055809 49 215 0.0 0.0 0.00 0.03 0.02
20260509055309 49 215 0.0 0.0 0.00 0.03 0.02
20260509054809 49 215 0.0 0.0 0.00 0.03 0.02
20260509054308 49 215 0.0 0.0 0.00 0.03 0.02
20260509053308 48 215 0.0 0.0 0.01 0.03 0.02
20260509052809 48 215 0.0 0.0 0.01 0.03 0.02
20260509052309 48 215 0.0 0.0 0.01 0.03 0.02
20260509051809 48 215 0.0 0.0 0.01 0.03 0.02
20260509050809 49 215 0.0 0.0 0.02 0.03 0.02
20260509050309 49 215 0.0 0.0 0.02 0.03 0.02
20260509045309 49 215 0.0 0.0 0.01 0.03 0.02
20260509044808 49 215 0.0 0.0 0.01 0.03 0.02
20260509044308 49 215 0.0 0.0 0.01 0.03 0.02
20260509042809 49 215 0.0 0.0 0.00 0.02 0.01
20260509041809 49 215 0.0 0.0 0.00 0.02 0.01
20260509041308 49 215 0.0 0.0 0.00 0.01 0.00
20260509040809 49 215 0.0 0.0 0.00 0.01 0.00
20260509040309 49 215 0.0 0.0 0.00 0.01 0.00
20260509035809 49 215 0.0 0.0 0.00 0.01 0.01
20260509035309 50 215 0.0 0.0 0.00 0.01 0.01
20260509034809 50 215 0.0 0.0 0.00 0.01 0.01
20260509033808 50 215 0.0 0.0 0.00 0.01 0.01
20260509033308 50 215 0.0 0.0 0.00 0.01 0.01
20260509032809 50 215 0.0 0.0 0.00 0.01 0.01
20260509032309 50 215 0.0 0.0 0.00 0.01 0.01
20260509031808 50 215 0.0 0.0 0.00 0.01 0.01
20260509031308 50 215 0.0 0.0 0.00 0.01 0.01
20260509030809 50 215 0.0 0.0 0.00 0.01 0.01
20260509025809 50 215 0.0 0.0 0.00 0.01 0.01
20260509025308 50 215 0.0 0.0 0.00 0.01 0.01
20260509024808 50 215 0.0 0.0 0.00 0.01 0.01
20260509024309 50 215 0.0 0.0 0.00 0.01 0.01
20260509023809 51 215 0.0 0.0 0.00 0.01 0.01
20260509023308 51 215 0.0 0.0 0.00 0.01 0.01
20260509022308 51 215 0.0 0.0 0.00 0.03 0.01
20260509021809 52 215 0.0 0.0 0.00 0.03 0.01
20260509021309 52 215 0.0 0.0 0.00 0.03 0.01
20260509020808 52 215 0.0 0.0 0.00 0.03 0.01
20260509020309 53 215 0.0 0.0 0.00 0.03 0.01
20260509015808 53 215 0.0 3.0 0.00 0.03 0.01
20260509015308 53 231 0.0 3.0 0.00 0.03 0.01
20260509014808 53 232 0.0 6.0 0.00 0.03 0.01
20260509014308 53 250 0.0 3.0 0.00 0.03 0.01
20260509013309 53 268 1.0 5.0 0.00 0.03 0.01
20260509011809 53 243 3.0 9.0 0.00 0.03 0.01
20260509010808 54 227 1.0 3.0 0.00 0.03 0.01
20260509010308 54 258 3.0 7.0 0.00 0.03 0.01
20260509005808 54 234 2.0 7.0 0.00 0.03 0.01
20260509005308 54 264 3.0 7.0 0.00 0.03 0.01
20260509004808 54 259 2.0 7.0 0.00 0.03 0.01
20260509004308 54 253 2.0 8.0 0.00 0.03 0.01
20260509003808 54 258 3.0 8.0 0.00 0.03 0.01
20260509002308 55 267 2.0 8.0 0.00 0.03 0.01
20260509001308 55 298 5.0 10.0 0.00 0.03 0.01
20260509000809 55 250 6.0 14.0 0.00 0.03 0.01
20260509000310 56 289 6.0 14.0 0.00 0.03 0.01
20260508235808 55 279 8.0 15.0 0.00 0.03 0.01
20260508234808 56 261 5.0 13.0 0.00 0.03 0.01
20260508234308 56 262 3.0 8.0 0.00 0.03 0.01
20260508233809 56 292 5.0 12.0 0.00 0.03 0.01
20260508233308 56 253 5.0 14.0 0.00 0.03 0.01
20260508232808 56 277 5.0 12.0 0.00 0.03 0.01
20260508232309 56 292 7.0 14.0 0.00 0.03 0.01
20260508231308 57 284 4.0 12.0 0.00 0.03 0.01
20260508230808 57 248 5.0 13.0 0.00 0.03 0.01
20260508225808 57 232 0.0 5.0 0.00 0.03 0.01
20260508225308 56 131 2.0 8.0 0.00 0.03 0.01
20260508224808 57 287 6.0 10.0 0.00 0.03 0.01
20260508224309 57 241 4.0 8.0 0.00 0.03 0.01
20260508223809 56 257 0.0 10.0 0.00 0.03 0.01
20260508223308 56 246 5.0 9.0 0.00 0.03 0.01
20260508221808 60 253 4.0 9.0 0.00 0.03 0.01
20260508221308 57 262 5.0 12.0 0.00 0.03 0.01
20260508220808 55 245 3.0 9.0 0.00 0.03 0.01
20260508220308 55 238 4.0 9.0 0.00 0.03 0.01
20260508215808 55 266 4.0 9.0 0.00 0.03 0.01
20260508215309 54 239 4.0 9.0 0.00 0.03 0.01
20260508214809 55 256 6.0 10.0 0.00 0.03 0.01
20260508214308 55 255 3.0 7.0 0.00 0.03 0.01
20260508213808 55 284 4.0 9.0 0.00 0.03 0.01
20260508213308 54 293 5.0 13.0 0.00 0.03 0.01
20260508212808 54 260 7.0 13.0 0.00 0.03 0.01
20260508212308 53 242 5.0 9.0 0.00 0.03 0.01
20260508211808 53 252 5.0 13.0 0.00 0.03 0.01
20260508210808 54 241 10.0 18.0 0.00 0.03 0.01
20260508210308 55 254 8.0 18.0 0.00 0.03 0.01
20260508205808 56 256 12.0 22.0 0.00 0.03 0.01
20260508205307 57 267 13.0 23.0 0.00 0.03 0.01
20260508204808 58 276 9.0 21.0 0.00 0.03 0.01
20260508203808 59 252 7.0 12.0 0.00 0.03 0.01
20260508202808 59 254 7.0 13.0 0.00 0.03 0.01
20260508202308 59 241 7.0 12.0 0.00 0.03 0.01
20260508201808 59 233 8.0 14.0 0.00 0.03 0.01
20260508201308 60 237 6.0 9.0 0.00 0.03 0.01
20260508200808 60 257 6.0 9.0 0.00 0.03 0.01
20260508195308 62 241 7.0 9.0 0.00 0.03 0.01
20260508194808 63 219 5.0 10.0 0.00 0.03 0.01
20260508194308 60 238 4.0 7.0 0.00 0.03 0.01
20260508193308 61 318 5.0 7.0 0.00 0.03 0.01
20260508192308 62 215 5.0 7.0 0.01 0.03 0.01
20260508191308 62 286 4.0 7.0 0.01 0.03 0.01
20260508190807 64 273 2.0 9.0 0.01 0.03 0.01
20260508190308 62 313 6.0 8.0 0.01 0.03 0.01
20260508185808 60 226 4.0 8.0 0.01 0.03 0.01
20260508184808 60 312 6.0 10.0 0.01 0.03 0.01
20260508184308 59 311 9.0 17.0 0.01 0.03 0.01
20260508183808 60 304 6.0 13.0 0.01 0.03 0.01
20260508183308 57 312 5.0 10.0 0.01 0.03 0.01
20260508182808 56 254 3.0 8.0 0.01 0.03 0.01
20260508182308 57 296 5.0 9.0 0.00 0.02 0.00
20260508181808 58 290 6.0 10.0 0.00 0.02 0.00
20260508181307 59 287 6.0 15.0 0.00 0.02 0.00
20260508180808 60 281 9.0 16.0 0.00 0.02 0.00
20260508180308 60 284 8.0 16.0 0.00 0.02 0.00
20260508175307 60 262 8.0 17.0 0.00 0.02 0.00
20260508174809 63 292 9.0 18.0 0.00 0.02 0.00
20260508174308 64 308 9.0 15.0 0.00 0.02 0.00
20260508173308 60 285 8.0 17.0 0.00 0.02 0.00
20260508172808 60 295 10.0 18.0 0.00 0.02 0.00
20260508172308 57 293 10.0 17.0 0.00 0.02 0.00
20260508171808 57 294 8.0 17.0 0.00 0.02 0.00
20260508171308 59 292 8.0 12.0 0.00 0.02 0.00
20260508170808 60 307 5.0 13.0 0.00 0.02 0.00
20260508165808 60 302 9.0 16.0 0.00 0.02 0.00
20260508165308 59 312 12.0 20.0 0.00 0.02 0.00
20260508164807 60 303 10.0 17.0 0.00 0.02 0.00
20260508164308 59 301 9.0 15.0 0.00 0.02 0.00
20260508162808 61 308 7.0 12.0 0.00 0.02 0.00
20260508162308 60 307 7.0 12.0 0.00 0.02 0.00
20260508161307 60 294 8.0 16.0 0.00 0.02 0.00
20260508160807 61 299 9.0 15.0 0.00 0.02 0.00
20260508155808 61 295 7.0 14.0 0.00 0.02 0.00
20260508155308 59 304 7.0 14.0 0.00 0.02 0.00
20260508154808 58 300 10.0 18.0 0.00 0.02 0.00
20260508154307 58 305 12.0 21.0 0.00 0.02 0.00
20260508153808 58 307 11.0 20.0 0.00 0.02 0.00
20260508153308 59 319 7.0 14.0 0.00 0.02 0.00
20260508152808 60 281 6.0 15.0 0.00 0.02 0.00
20260508152308 59 309 8.0 15.0 0.00 0.02 0.00
20260508151808 59 312 10.0 17.0 0.00 0.02 0.00
20260508151308 62 281 8.0 16.0 0.00 0.02 0.00
20260508150808 62 299 9.0 20.0 0.00 0.02 0.00
20260508145808 62 274 8.0 16.0 0.00 0.02 0.00
20260508145308 61 265 10.0 18.0 0.00 0.02 0.00
20260508144808 61 282 8.0 15.0 0.00 0.02 0.00
20260508144307 60 288 8.0 15.0 0.00 0.02 0.00
20260508143807 60 250 7.0 14.0 0.00 0.02 0.00
20260508142308 58 270 8.0 18.0 0.00 0.02 0.00
20260508141807 59 240 9.0 18.0 0.00 0.02 0.00
20260508141308 58 276 7.0 17.0 0.00 0.02 0.00
20260508140307 57 251 8.0 15.0 0.00 0.02 0.00
20260508135808 56 254 8.0 17.0 0.00 0.02 0.00
20260508135307 55 254 10.0 16.0 0.00 0.02 0.00
20260508134810 56 254 6.0 17.0 0.00 0.02 0.00
20260508134310 56 258 4.0 12.0 0.00 0.02 0.00
20260508133309 56 297 3.0 7.0 0.00 0.02 0.00
20260508132810 55 298 2.0 7.0 0.00 0.02 0.00
20260508132310 53 315 3.0 7.0 0.00 0.02 0.00
20260508131809 52 295 4.0 7.0 0.00 0.02 0.00
20260508131309 51 309 3.0 6.0 0.00 0.02 0.00
20260508130809 49 289 5.0 6.0 0.00 0.02 0.00
20260508130309 48 317 1.0 3.0 0.00 0.02 0.00
20260508125809 47 209 0.0 0.0 0.00 0.02 0.00
20260508125310 47 209 0.0 0.0 0.00 0.02 0.00
20260508124809 44 209 0.0 0.0 0.00 0.02 0.00
20260508124309 43 209 0.0 0.0 0.00 0.02 0.00
20260508123809 42 209 0.0 0.0 0.00 0.02 0.00
20260508122810 41 209 0.0 0.0 0.00 0.02 0.00
20260508122310 41 209 0.0 0.0 0.00 0.02 0.00
20260508121809 41 209 0.0 0.0 0.00 0.02 0.00
20260508120810 40 209 0.0 0.0 0.00 0.02 0.00
20260508120309 40 209 0.0 0.0 0.00 0.02 0.00
20260508115809 40 209 0.0 0.0 0.00 0.02 0.00
20260508115309 39 209 0.0 0.0 0.00 0.02 0.00
20260508114310 40 209 0.0 0.0 0.00 0.02 0.00
20260508113809 39 209 0.0 0.0 0.00 0.02 0.00
20260508113309 39 209 0.0 0.0 0.00 0.02 0.00
20260508112309 38 209 0.0 0.0 0.00 0.02 0.00
20260508111309 38 209 0.0 0.0 0.00 0.02 0.00
20260508110309 37 209 0.0 0.0 0.00 0.02 0.00
20260508105810 36 209 0.0 0.0 0.00 0.02 0.00
20260508105309 35 209 0.0 0.0 0.00 0.02 0.00
20260508104810 35 209 0.0 0.0 0.00 0.02 0.00
20260508103809 34 209 0.0 0.0 0.00 0.02 0.00
20260508102309 34 209 0.0 0.0 0.00 0.02 0.00
20260508101809 34 209 0.0 0.0 0.00 0.02 0.00
20260508101309 33 209 0.0 0.0 0.00 0.02 0.00
20260508100809 33 209 0.0 0.0 0.00 0.02 0.00
20260508100309 32 209 0.0 0.0 0.00 0.02 0.00
20260508095809 31 209 0.0 0.0 0.00 0.02 0.00
20260508094809 31 209 0.0 0.0 0.00 0.02 0.00
20260508094309 32 209 0.0 0.0 0.00 0.02 0.00
20260508093309 33 209 0.0 0.0 0.00 0.02 0.00
20260508092313 33 209 0.0 0.0 0.00 0.02 0.00
20260508091809 33 209 0.0 0.0 0.00 0.02 0.00
20260508091309 33 209 0.0 0.0 0.00 0.02 0.00
20260508090809 33 209 0.0 0.0 0.00 0.02 0.00
20260508090309 33 209 0.0 0.0 0.00 0.02 0.00
20260508085809 33 209 0.0 0.0 0.00 0.02 0.00
20260508085309 33 209 0.0 0.0 0.00 0.02 0.00
20260508084808 33 209 0.0 0.0 0.00 0.02 0.00
20260508084309 33 209 0.0 0.0 0.00 0.02 0.00
20260508083809 33 209 0.0 0.0 0.00 0.02 0.00
20260508083309 33 209 0.0 0.0 0.00 0.02 0.00
20260508082809 34 209 0.0 0.0 0.00 0.02 0.00
20260508082309 34 209 0.0 0.0 0.00 0.02 0.00
20260508081809 34 209 0.0 0.0 0.00 0.02 0.00
20260508080809 34 209 0.0 0.0 0.00 0.02 0.00
20260508075809 34 209 0.0 0.0 0.00 0.02 0.00
20260508075309 34 209 0.0 0.0 0.00 0.02 0.00
20260508074809 34 209 0.0 0.0 0.00 0.02 0.00
20260508074309 34 209 0.0 0.0 0.00 0.02 0.00
20260508073809 35 209 0.0 0.0 0.00 0.02 0.00
20260508073309 35 209 0.0 0.0 0.00 0.02 0.00
20260508072309 34 209 0.0 0.0 0.00 0.02 0.00
20260508071809 34 209 0.0 0.0 0.00 0.02 0.00
20260508071309 34 209 0.0 0.0 0.00 0.02 0.00
20260508070809 34 209 0.0 0.0 0.00 0.02 0.00
20260508070309 35 209 0.0 0.0 0.00 0.02 0.00
20260508065809 35 209 0.0 0.0 0.00 0.02 0.00
20260508065309 35 209 0.0 0.0 0.00 0.02 0.00
20260508064809 35 209 0.0 0.0 0.00 0.02 0.00